Regional Weather Roundup
Issued by NWS

Home | Current Version | Previous Version | Graphics & Text | Print | Product List | Glossary On
Versions: 1 2 3 4 5 6 7 8 9 10 11 12 13 14 15 16 17 18 19 20 21 22 23 24 25 26 27 28 29 30 31 32 33 34 35 36 37 38 39 40 41 42 43 44 45 46 47 48 49 50
505
ASUS43 KLMK 241302
RWRKY
KENTUCKY REGIONAL WEATHER ROUNDUP
NATIONAL WEATHER SERVICE LOUISVILLE KY
900 AM EDT FRI MAR 24 2017

NOTE "FAIR" INDICATES FEW OR NO CLOUDS BELOW 12,000 FEET
WITH NO SIGNIFICANT WEATHER AND/OR OBSTRUCTIONS TO VISIBILITY.

KYZ001>023-026-027-061>063-070>075-241400-
WESTERN AND SOUTH CENTRAL KENTUCKY

CITY           SKY/WX    TMP DP  RH WIND       PRES   REMARKS
PADUCAH        MOSUNNY   64  55  72 S15G22    30.12R
HENDERSON      SUNNY     61  52  72 S16       30.12R
OWENSBORO      SUNNY     60  52  74 S15       30.16R
HOPKINSVILLE   SUNNY     62  53  70 S15G22    30.18R
BOWLING GREEN  SUNNY     61  47  59 S12G22    30.23R
GLASGOW        NOT AVBL
$$

KYZ024-025-028>034-038-045-046-053-241400-
NORTH CENTRAL KENTUCKY

CITY           SKY/WX    TMP DP  RH WIND       PRES   REMARKS
LOUISVILLE/SDF MOSUNNY   59  42  53 S12       30.20R
LOUISVILLE/LOU SUNNY     59  43  55 S12G18    30.21R
FORT KNOX      SUNNY     58  46  63 S15G21    30.19R
$$

KYZ035>037-039>044-047>052-055>060-089>105-241400-
NORTHEAST KENTUCKY

CITY           SKY/WX    TMP DP  RH WIND       PRES   REMARKS
LEXINGTON      CLOUDY    57  41  55 S13       30.24R
COVINGTON      PTSUNNY   55  43  63 S10       30.18R
FRANKFORT      PTSUNNY   59  42  53 S10       30.22R
$$

KYZ054-064>069-076>088-106>120-241400-
SOUTHEAST KENTUCKY

CITY           SKY/WX    TMP DP  RH WIND       PRES   REMARKS
JACKSON        SUNNY     57  41  55 S5        30.29R
LONDON         MOSUNNY   58  39  49 S12       30.30S
SOMERSET       NOT AVBL
MIDDLESBORO    PTSUNNY   54  36  51 S3        30.37S
MONTICELLO     SUNNY     59  45  59 VRB6G17   30.31R
$$





USA.gov is the U.S. government's official web portal to all federal, state and local government web resources and services.